Weather History for KALM - December, 2012

Change the Weather History Date:

Tuesday, December 4, 2012

  Actual Average Record
Temperature  
Mean Temperature 49 °F -  
Max Temperature 66 °F 60 °F 74 °F (1977)
Min Temperature 32 °F 30 °F 18 °F (1957)
Degree Days  
Heating Degree Days 16    
Moisture  
Dew Point 22 °F    
Average Humidity 36    
Maximum Humidity 56    
Minimum Humidity 17    
Precipitation  
Precipitation 0.00 in - - ()
Sea Level Pressure  
Sea Level Pressure 30.31 in    
Wind  
Wind Speed 4 mph (NE)    
Max Wind Speed 10 mph    
Max Gust Speed 16 mph    
Visibility 10 miles    
Events      
Averages and records for this station are not official NWS values.
T = Trace of Precipitation, MM = Missing Value Source: NWS Daily Summary

Daily Weather History Graph

Daily Weather History Graph

Search for Another Location

Airport or City:

Trip Planner

Search our weather history database for the weather conditions in past years. The results will help you decide how hot, cold, wet, or windy it might be!

Date:

Astronomy

Dec. 04, 2012 Rise Set
Actual Time 6:51 AM MST 4:57 PM MST
Civil Twilight 6:24 AM MST 5:24 PM MST
Nautical Twilight 5:53 AM MST 5:54 PM MST
Astronomical Twilight 5:23 AM MST 6:24 PM MST
Moon 10:35 PM MST (12/4) 10:57 AM MST (12/4)
Length of Visible Light 10h 59m
Length of Day
10h 05m
Waning Gibbous, 69% of the Moon is Illuminated
Dec 4
Waning Gibbous
Dec 6
Last Quarter
Dec 13
New
Dec 19
First Quarter
Dec 28
Full

Hourly Weather History & Observations

Time (MST) Temp. Windchill Dew Point Humidity Pressure Visibility Wind Dir Wind Speed Gust Speed Precip Events Conditions
12:15 AM 46.4 °F 42.9 °F 23.0 °F 40% 30.20 in 10.0 mi NNE 6.9 mph - N/A   Clear
12:35 AM 48.2 °F - 23.0 °F 37% 30.19 in 10.0 mi NNE 4.6 mph - N/A   Clear
12:55 AM 50.0 °F - 23.0 °F 35% 30.19 in 10.0 mi Calm Calm - N/A   Clear
1:15 AM 48.2 °F - 23.0 °F 37% 30.20 in 10.0 mi Calm Calm - N/A   Clear
1:55 AM 41.0 °F 39.0 °F 23.0 °F 49% 30.22 in 10.0 mi WNW 3.5 mph - N/A   Clear
2:15 AM 41.0 °F 37.1 °F 21.2 °F 45% 30.22 in 10.0 mi NNE 5.8 mph - N/A   Clear
2:35 AM 41.0 °F 39.0 °F 23.0 °F 49% 30.22 in 10.0 mi NE 3.5 mph - N/A   Clear
2:55 AM 37.4 °F 33.8 °F 19.4 °F 48% 30.22 in 10.0 mi ENE 4.6 mph - N/A   Clear
3:15 AM 39.2 °F 35.0 °F 21.2 °F 49% 30.23 in 10.0 mi East 5.8 mph - N/A   Clear
3:35 AM 42.8 °F - 23.0 °F 46% 30.23 in 10.0 mi Calm Calm - N/A   Clear
3:55 AM 41.0 °F - 23.0 °F 49% 30.24 in 10.0 mi Calm Calm - N/A   Clear
4:15 AM 37.4 °F 34.9 °F 21.2 °F 52% 30.24 in 10.0 mi SSE 3.5 mph - N/A   Clear
4:35 AM 39.2 °F 37.0 °F 23.0 °F 52% 30.25 in 10.0 mi South 3.5 mph - N/A   Clear
4:55 AM 37.4 °F 31.4 °F 21.2 °F 52% 30.26 in 10.0 mi SSE 8.1 mph - N/A   Clear
5:15 AM 35.6 °F 30.7 °F 19.4 °F 52% 30.27 in 10.0 mi SSE 5.8 mph - N/A   Clear
5:35 AM 35.6 °F 31.7 °F 19.4 °F 52% 30.28 in 10.0 mi SE 4.6 mph - N/A   Clear
5:55 AM 32.0 °F 26.4 °F 17.6 °F 55% 30.28 in 10.0 mi ESE 5.8 mph - N/A   Clear
6:15 AM 33.8 °F 30.8 °F 19.4 °F 56% 30.29 in 10.0 mi ESE 3.5 mph - N/A   Clear
6:35 AM 37.4 °F - 19.4 °F 48% 30.30 in 10.0 mi Calm Calm - N/A   Clear
6:55 AM 35.6 °F - 19.4 °F 52% 30.30 in 10.0 mi Calm Calm - N/A   Clear
7:15 AM 33.8 °F - 17.6 °F 52% 30.31 in 10.0 mi Calm Calm - N/A   Clear
7:35 AM 35.6 °F 32.8 °F 19.4 °F 52% 30.32 in 10.0 mi North 3.5 mph - N/A   Clear
7:55 AM 41.0 °F - 24.8 °F 53% 30.33 in 10.0 mi Calm Calm - N/A   Clear
8:15 AM 44.6 °F 43.1 °F 24.8 °F 46% 30.33 in 10.0 mi West 3.5 mph - N/A   Clear
8:35 AM 44.6 °F 40.7 °F 23.0 °F 43% 30.34 in 10.0 mi SSE 6.9 mph - N/A   Clear
8:55 AM 48.2 °F - 24.8 °F 40% 30.35 in 10.0 mi SE 4.6 mph - N/A   Clear
9:15 AM 50.0 °F - 24.8 °F 37% 30.36 in 10.0 mi SE 4.6 mph - N/A   Clear
9:35 AM 53.6 °F - 26.6 °F 35% 30.37 in 10.0 mi Calm Calm - N/A   Clear
9:55 AM 55.4 °F - 26.6 °F 33% 30.38 in 10.0 mi South 4.6 mph - N/A   Clear
10:15 AM 55.4 °F - 26.6 °F 33% 30.39 in 10.0 mi South 3.5 mph - N/A   Clear
10:35 AM 55.4 °F - 26.6 °F 33% 30.39 in 10.0 mi Calm Calm - N/A   Clear
11:15 AM 59.0 °F - 26.6 °F 29% 30.38 in 10.0 mi Calm Calm - N/A   Clear
11:35 AM 62.6 °F - 28.4 °F 27% 30.38 in 10.0 mi North 9.2 mph - N/A   Clear
11:55 AM 62.6 °F - 26.6 °F 26% 30.38 in 10.0 mi North 8.1 mph - N/A   Clear
12:15 PM 64.4 °F - 26.6 °F 24% 30.37 in 10.0 mi NW 10.4 mph 16.1 mph N/A   Clear
12:35 PM 64.4 °F - 24.8 °F 22% 30.36 in 10.0 mi North 9.2 mph - N/A   Clear
12:55 PM 64.4 °F - 24.8 °F 22% 30.35 in 10.0 mi NNW 9.2 mph - N/A   Clear
1:15 PM 64.4 °F - 24.8 °F 22% 30.34 in 10.0 mi North 10.4 mph - N/A   Clear
1:35 PM 64.4 °F - 23.0 °F 21% 30.33 in 10.0 mi NW 8.1 mph - N/A   Clear
1:55 PM 64.4 °F - 23.0 °F 21% 30.33 in 10.0 mi North 9.2 mph - N/A   Clear
2:15 PM 66.2 °F - 21.2 °F 18% 30.32 in 10.0 mi NW 9.2 mph - N/A   Clear
2:35 PM 66.2 °F - 21.2 °F 18% 30.31 in 10.0 mi NNW 9.2 mph - N/A   Clear
2:55 PM 66.2 °F - 19.4 °F 17% 30.31 in 10.0 mi North 8.1 mph - N/A   Clear
3:15 PM 64.4 °F - 19.4 °F 18% 30.31 in 10.0 mi North 5.8 mph - N/A   Clear
3:35 PM 66.2 °F - 19.4 °F 17% 30.30 in 10.0 mi NNW 5.8 mph - N/A   Clear
3:55 PM 64.4 °F - 19.4 °F 18% 30.30 in 10.0 mi NNW 5.8 mph - N/A   Clear
4:15 PM 64.4 °F - 21.2 °F 19% 30.30 in 10.0 mi NW 3.5 mph - N/A   Clear
4:35 PM 62.6 °F - 23.0 °F 22% 30.30 in 10.0 mi NW 5.8 mph - N/A   Clear
4:55 PM 59.0 °F - 21.2 °F 23% 30.31 in 10.0 mi NW 3.5 mph - N/A   Clear
5:15 PM 57.2 °F - 21.2 °F 25% 30.30 in 10.0 mi West 3.5 mph - N/A   Clear
5:35 PM 55.4 °F - 21.2 °F 26% 30.31 in 10.0 mi SE 3.5 mph - N/A   Clear
5:55 PM 53.6 °F - 21.2 °F 28% 30.32 in 10.0 mi SE 5.8 mph - N/A   Clear
6:15 PM 50.0 °F - 19.4 °F 30% 30.32 in 10.0 mi SE 5.8 mph - N/A   Clear
6:35 PM 50.0 °F - 19.4 °F 30% 30.33 in 10.0 mi SE 5.8 mph - N/A   Clear
6:55 PM 50.0 °F - 19.4 °F 30% 30.33 in 10.0 mi ESE 3.5 mph - N/A   Clear
7:15 PM 50.0 °F - 19.4 °F 30% 30.34 in 10.0 mi ESE 3.5 mph - N/A   Clear
7:35 PM 48.2 °F - 17.6 °F 30% 30.34 in 10.0 mi ESE 3.5 mph - N/A   Clear
7:55 PM 46.4 °F - 17.6 °F 32% 30.34 in 10.0 mi Calm Calm - N/A   Clear
8:15 PM 46.4 °F - 17.6 °F 32% 30.35 in 10.0 mi Calm Calm - N/A   Clear
8:35 PM 42.8 °F 40.1 °F 17.6 °F 36% 30.35 in 10.0 mi NNE 4.6 mph - N/A   Clear
8:55 PM 42.8 °F 40.1 °F 19.4 °F 39% 30.35 in 10.0 mi NE 4.6 mph - N/A   Clear
9:15 PM 44.6 °F 40.7 °F 19.4 °F 37% 30.35 in 10.0 mi NE 6.9 mph - N/A   Clear
9:35 PM 41.0 °F 37.1 °F 17.6 °F 39% 30.35 in 10.0 mi NE 5.8 mph - N/A   Clear
9:55 PM 44.6 °F 40.7 °F 19.4 °F 37% 30.35 in 10.0 mi ENE 6.9 mph - N/A   Clear
10:15 PM 41.0 °F 37.1 °F 19.4 °F 42% 30.35 in 10.0 mi ENE 5.8 mph - N/A   Clear
10:35 PM 42.8 °F 39.3 °F 19.4 °F 39% 30.35 in 10.0 mi ENE 5.8 mph - N/A   Clear
10:55 PM 41.0 °F 37.1 °F 19.4 °F 42% 30.34 in 10.0 mi ENE 5.8 mph - N/A   Clear
11:15 PM 41.0 °F 39.0 °F 19.4 °F 42% 30.35 in 10.0 mi ESE 3.5 mph - N/A   Clear
11:35 PM 44.6 °F - 21.2 °F 39% 30.34 in 10.0 mi Calm Calm - N/A   Clear
11:55 PM 35.6 °F - 17.6 °F 48% 30.34 in 10.0 mi Calm Calm - N/A   Clear